PAA930 KSFO-KSAN

Flight info

Callsign PAA930
Flight time N/A
Altitude 35000
Route SEGUL1 YYUNG DCT LAX COMIX2 KSAN
Aircraft B722/M-G/Y

Departure

Time 2026-05-07 06:48
Airport San Francisco International Airport (KSFO)

Arrival

Time N/A
Airport San Diego International Airport (KSAN)
Time Latitude Longitude Altitude Speed Heading
2026-05-07 06:43 37.61678 -122.36751 21 ft 0 kts 208°
2026-05-07 06:45 37.61673 -122.36754 21 ft 5 kts 208°
2026-05-07 06:45 37.61531 -122.36849 21 ft 35 kts 210°
2026-05-07 06:45 37.61405 -122.36830 21 ft 29 kts 128°
2026-05-07 06:45 37.61251 -122.36505 21 ft 39 kts 115°
2026-05-07 06:46 37.61134 -122.36227 21 ft 32 kts 118°
2026-05-07 06:46 37.61052 -122.35981 21 ft 24 kts 73°
2026-05-07 06:46 37.61100 -122.35885 21 ft 5 kts 38°
2026-05-07 06:46 37.61158 -122.35824 21 ft 1 kts 358°
2026-05-07 06:47 37.61194 -122.35882 21 ft 5 kts 298°
2026-05-07 06:47 37.61267 -122.36056 21 ft 80 kts 298°
2026-05-07 06:47 37.61777 -122.37263 21 ft 221 kts 298°
2026-05-07 06:47 37.62606 -122.39228 610 ft 263 kts 297°
2026-05-07 06:48 37.63434 -122.41182 2253 ft 245 kts 297°
2026-05-07 06:48 37.64294 -122.43166 2877 ft 265 kts 298°
2026-05-07 06:48 37.65199 -122.45250 3530 ft 278 kts 297°
2026-05-07 06:48 37.65716 -122.47724 4150 ft 309 kts 274°
2026-05-07 06:49 37.65378 -122.50541 4848 ft 336 kts 254°
2026-05-07 06:49 37.64443 -122.53344 5523 ft 358 kts 244°
2026-05-07 06:49 37.63233 -122.55989 6162 ft 334 kts 239°
2026-05-07 06:49 37.61987 -122.58307 6826 ft 312 kts 236°
2026-05-07 06:50 37.60704 -122.60536 7528 ft 320 kts 234°
2026-05-07 06:50 37.59366 -122.62840 8239 ft 334 kts 234°
2026-05-07 06:50 37.57953 -122.65311 8937 ft 357 kts 235°
2026-05-07 06:50 37.56501 -122.67903 9646 ft 363 kts 235°
2026-05-07 06:51 37.54766 -122.70252 10345 ft 369 kts 217°
2026-05-07 06:51 37.52491 -122.71728 11046 ft 375 kts 197°
2026-05-07 06:51 37.49897 -122.72178 11765 ft 378 kts 179°
2026-05-07 06:51 37.47212 -122.71887 12491 ft 396 kts 171°
2026-05-07 06:52 37.44476 -122.71222 13199 ft 408 kts 166°
2026-05-07 06:52 37.41711 -122.70378 13901 ft 415 kts 165°
2026-05-07 06:52 37.38891 -122.69445 14607 ft 421 kts 164°
2026-05-07 06:52 37.36021 -122.68480 15315 ft 427 kts 164°
2026-05-07 06:53 37.33151 -122.67530 16013 ft 432 kts 164°
2026-05-07 06:53 37.30198 -122.66581 16720 ft 438 kts 165°
2026-05-07 06:53 37.27235 -122.65661 17419 ft 449 kts 165°
2026-05-07 06:53 37.24135 -122.64728 18126 ft 469 kts 166°
2026-05-07 06:54 37.20896 -122.63785 18838 ft 480 kts 166°
2026-05-07 06:54 37.17615 -122.62856 19542 ft 488 kts 166°
2026-05-07 06:54 37.14249 -122.61926 20251 ft 495 kts 167°
2026-05-07 06:54 37.10863 -122.61010 20953 ft 501 kts 167°
2026-05-07 06:55 37.07453 -122.60102 21652 ft 507 kts 167°
2026-05-07 06:55 37.03986 -122.59190 22353 ft 513 kts 168°
2026-05-07 06:55 37.00429 -122.58265 22940 ft 522 kts 168°
2026-05-07 06:55 36.96863 -122.57341 23022 ft 531 kts 168°
2026-05-07 06:56 36.93255 -122.56405 23013 ft 533 kts 168°
2026-05-07 06:56 36.89587 -122.55454 23002 ft 533 kts 168°
2026-05-07 06:56 36.85961 -122.54515 22997 ft 534 kts 168°
2026-05-07 06:56 36.82331 -122.53574 22995 ft 535 kts 168°
2026-05-07 06:57 36.78695 -122.52632 22994 ft 535 kts 168°
2026-05-07 06:57 36.75017 -122.51680 22999 ft 535 kts 168°
2026-05-07 06:57 36.71383 -122.50739 23086 ft 534 kts 168°
2026-05-07 06:57 36.67801 -122.49813 23740 ft 527 kts 168°
2026-05-07 06:58 36.64129 -122.48864 24511 ft 556 kts 168°
2026-05-07 06:58 36.60158 -122.47836 25303 ft 599 kts 168°
2026-05-07 06:58 36.55979 -122.46755 26082 ft 637 kts 168°
2026-05-07 06:58 36.51510 -122.45601 26870 ft 664 kts 168°
2026-05-07 06:59 36.46971 -122.44431 27641 ft 682 kts 168°
2026-05-07 06:59 36.42322 -122.42972 28419 ft 692 kts 161°
2026-05-07 06:59 36.37918 -122.40512 29202 ft 697 kts 149°
2026-05-07 06:59 36.33901 -122.37084 29996 ft 698 kts 140°
2026-05-07 07:00 36.30314 -122.33075 30781 ft 698 kts 134°
2026-05-07 07:00 36.27013 -122.28661 31569 ft 696 kts 129°
2026-05-07 07:00 36.23942 -122.24012 32357 ft 694 kts 126°
2026-05-07 07:00 36.21071 -122.19283 33208 ft 689 kts 124°
2026-05-07 07:01 36.18286 -122.14440 34186 ft 682 kts 123°
2026-05-07 07:01 36.15617 -122.09652 35047 ft 679 kts 122°
2026-05-07 07:01 36.10235 -121.99867 34997 ft 693 kts 122°
2026-05-07 07:02 36.04732 -121.90003 34992 ft 701 kts 123°
2026-05-07 07:02 35.99064 -121.80165 34991 ft 705 kts 124°
2026-05-07 07:03 35.93220 -121.70381 34990 ft 708 kts 125°
2026-05-07 07:03 35.87266 -121.60736 34990 ft 709 kts 126°
2026-05-07 07:04 35.81187 -121.51163 34993 ft 709 kts 126°
2026-05-07 07:04 35.75038 -121.41695 34993 ft 709 kts 127°
2026-05-07 07:05 35.68806 -121.32267 34984 ft 710 kts 127°
2026-05-07 07:05 35.62488 -121.22841 34980 ft 709 kts 127°
2026-05-07 07:06 35.56204 -121.13564 34979 ft 709 kts 128°
2026-05-07 07:06 35.49988 -121.04205 34979 ft 708 kts 126°
2026-05-07 07:07 35.44021 -120.94522 34976 ft 707 kts 124°
2026-05-07 07:07 35.38500 -120.85193 34970 ft 707 kts 123°